Weather in Kherson

Ukraine / Kherson District     46°38′25″N   32°36′53″E
В апреле 2022 года жителям России запретили посещать сайт meteo.paraplan.net по решению Генеральной прокуратуры. Аудитория сайта уменьшилась в 10 раз. Владельцы сайта не видят смысла в поддержке погодного сервера в таких условиях. Сайт будет закрыт в октябре.
temp.,
°C
wind,
m/s
gust,
m/s
humid.,
%
clouds,
%
prec.,
mm/h
press.,
hPa
HPBL,
m
5 october, wed
wed500:00+11w356115 0.0 102197
03:00+10wnw367021 0.0 1022125
06:00+9wnw3678100 0.0 1024108
09:00+12wnw356996 0.0 1025331
12:00+17wnw46495 0.0 10261496
15:00+18wnw563877 0.0 10252121
18:00+16nw3445100 0.0 1026188
21:00+14nnw3451100 0.0 1027100
6 october, thu
thu600:00+13nnw2357100 0.0 102847
03:00+12nnw2263100 0.0 102831
06:00+11nnw1264100 0.0 102820
09:00+14nw1157100 0.0 1028139
12:00+17wnw2243100 0.0 1028765
15:00+20w333599 0.0 10271159
18:00+17wsw344871 0.0 102696
21:00+14wsw33616 0.0 102742
7 october, fri
fri700:00+13w336753 0.0 102844
03:00+12wnw3373100 0.0 102744
06:00+12nnw3364100 0.0 102642
09:00+15n3553100 0.0 1026200
12:00+20nne4445100 0.0 1026927
15:00+22ne554185 0.0 10251544
18:00+19nne475293 0.0 1024272
21:00+16nne5117088 0.0 1024275
8 october, sat
sat800:00+14nne41168100 0.0 1025285
03:00+13ne51069100 0.0 1023247
06:00+13ne4975100 0.0 1023241
09:00+15ne597299 0.0 1023348
12:00+20ene564781 0.0 10211045
15:00+22ene563864 0.0 10191379
18:00+19ene35465 0.0 1019155
21:00+16ne47575 0.0 1019129
9 october, sun
sun900:00+15ne34605 0.0 101859
03:00+13nne35655 0.0 101874
06:00+12nne367136 0.0 101896
09:00+15n466121 0.0 1018258
12:00+21n564063 0.0 10181155
15:00+22n7837100 0.0 10181753
18:00+18n71049100 0.0 1020680
21:00+15n713605 0.0 1022707